Regional Weather Roundup
Issued by NWS

Home | Current Version | Previous Version | Graphics & Text | Print | Product List | Glossary On
Versions: 1 2 3 4 5 6 7 8 9 10 11 12 13 14 15 16 17 18 19 20 21 22 23 24 25 26 27 28 29 30 31 32 33 34 35 36 37 38 39 40 41 42 43 44 45 46 47 48 49 50
000
ASUS43 KIND 200909
RWRIN

WEATHER ROUNDUP FOR INDIANA
NATIONAL WEATHER SERVICE INDIANAPOLIS IN
500 AM EDT MON OCT 20 2014

NOTE: "FAIR" INDICATES FEW OR NO CLOUDS BELOW 12,000 FEET WITH NO
SIGNIFICANT WEATHER AND/OR OBSTRUCTIONS TO VISIBILITY.

* - STATION DOES NOT REPORT WEATHER SUCH AS PRECIPITATION OR FOG.

+ - STATION NOT QUALITY CONTROLLED BY THE NATIONAL WEATHER SERVICE.
    USE DATA WITH CAUTION...ESPECIALLY DEWPOINT AND RELATIVE
    HUMIDITY OBSERVATIONS.

INZ001>003-010>013-019-020-201000-
NORTHWEST INDIANA

CITY           SKY/WX    TMP DP  RH WIND       PRES   REMARKS
GARY /AIRPORT/ PTCLDY    52  44  74 S6        29.85F
KNOX *+        CLOUDY    49  42  78 SW9       29.88F
LA PORTE +     CLOUDY    50  46  84 SW8       29.88F
MICHIGAN CITY+ CLOUDY    50  41  71 S10G18    29.86F
MONTICELLO +   CLOUDY    48  44  85 SW8       29.91F
RENSSELAER +   CLOUDY    50  46  87 S9        29.89F
VALPARAISO     CLOUDY    48  43  82 S9        29.87F

$$

LMZ046-743>745-201000-
SOUTHERN LAKE MICHIGAN

STATION/POSITION TIME  TEMP WIND        PRES
                       AIR  DIR/SP/G
                 (UTC) (F)  (DEG/KT/KT) (MB)
MICHIGAN CITY    0900   52  170/ 16/ 21   N/A

$$

INZ004-005-014>016-021>024-201000-
NORTH CENTRAL INDIANA

CITY           SKY/WX    TMP DP  RH WIND       PRES   REMARKS
GOSHEN         CLOUDY    49  43  80 SW12      29.88F
LOGANSPORT +   CLOUDY    46  41  81 SW10      29.92F
PERU/GRISSOM   MOCLDY    49  47  92 SW12      29.92F
ROCHESTER +    MOCLDY    50  45  81 SW8       29.91F
SOUTH BEND     CLOUDY    50  43  77 SW15      29.87F
WARSAW +       CLOUDY    48  43  81 SW6       29.90F

$$

INZ006>009-017-018-025>027-201000-
NORTHEAST INDIANA

CITY           SKY/WX    TMP DP  RH WIND       PRES   REMARKS
ANGOLA *+      CLOUDY    46  37  71 S6        29.89F
AUBURN +       PTCLDY    46  41  81 S6        29.92F
FORT WAYNE     CLOUDY    47  42  83 SW8       29.93F
HUNTINGTON +   CLOUDY    48  43  82 SW5       29.92F

$$

INZ028-029-035-036-043>045-051>053-201000-
WEST CENTRAL INDIANA

CITY           SKY/WX    TMP DP  RH WIND       PRES   REMARKS
GREENCASTLE +  CLOUDY    48  43  81 S3        29.98F
LAFAYETTE      CLOUDY    48  43  82 SW5       29.93F
TERRE HAUTE    LGT RAIN  50  45  83 S9        29.98F

$$

INZ030>032-037>040-046>048-054>057-064-065-201000-
CENTRAL INDIANA

CITY           SKY/WX    TMP DP  RH WIND       PRES   REMARKS
CP ATTERBURY + CLOUDY    46  43  87 CALM      30.01S
FRANKFORT +    PTCLDY    47  43  85 S6        29.95F
GREENWOOD *+   CLOUDY    48  41  76 S6        29.99F
INDIANAPOLIS   CLOUDY    48  42  80 S9        29.98F
-EAGLE CREEK   CLOUDY    48  43  82 S6        29.97F
KOKOMO *+      CLOUDY    50  41  71 SW9       29.94F
MARION +       CLOUDY    48  42  79 SW8       29.95F
MT COMFORT *+  CLOUDY    46  41  81 S6        29.99S
SHELBYVILLE    CLOUDY    48  42  80 S8        30.00S
ZIONSVILLE +   MOCLDY    49  42  76 S8        29.96F

$$

INZ033-034-041-042-049-050-058-059-201000-
EAST CENTRAL INDIANA

CITY           SKY/WX    TMP DP  RH WIND       PRES   REMARKS
MUNCIE         LGT RAIN  49  43  80 SW8       29.96F

$$

INZ060-061-067>069-081>083-085>088-201000-
SOUTHWEST INDIANA

CITY           SKY/WX    TMP DP  RH WIND       PRES   REMARKS
EVANSVILLE     CLOUDY    49  45  86 SW5       30.04F
HUNTINGBURG *+ CLOUDY    46  43  87 SW5       30.04F
WASHINGTON +   CLOUDY    51  46  84 S9        30.01F

$$

INZ062-063-066-070>080-084-089>092-201000-
SOUTH CENTRAL AND SOUTHEAST INDIANA

CITY           SKY/WX    TMP DP  RH WIND       PRES   REMARKS
BLOOMINGTON    CLOUDY    49  44  83 S5        30.00F
SEYMOUR +      CLOUDY    46  45  93 CALM      30.02

$$




USA.gov is the U.S. government's official web portal to all federal, state and local government web resources and services.